Hettinger, ND

3:59 AM MDT on August 17, 2017 (GMT -0600)
Hettinger Municipal

Weather History for KHEI - March, 2013

Change the Weather History Date:

Sunday, March 24, 2013

  Actual Average Record
Temperature  
Mean Temperature 15 °F -  
Max Temperature 24 °F 45 °F 69 °F (2007)
Min Temperature 5 °F 21 °F 1 °F (2006)
Degree Days  
Heating Degree Days 50 32  
Month to date heating degree days 930 879  
Since 1 July heating degree days 6888 7195  
Cooling Degree Days 0 0  
Month to date cooling degree days 0 0  
Year to date cooling degree days 0 0  
Moisture  
Dew Point 10 °F    
Average Humidity 75    
Maximum Humidity 88    
Minimum Humidity 65    
Precipitation  
Precipitation T in 0.03 in 0.60 in (2009)
Month to date precipitation 0.41 0.52  
Year to date precipitation 0.54 1.25  
Sea Level Pressure  
Sea Level Pressure 30.25 in    
Wind  
Wind Speed 13 mph (NW)    
Max Wind Speed 22 mph    
Max Gust Speed 25 mph    
Visibility 4 miles    
Events Snow    
T = Trace of Precipitation, MM = Missing Value Source: NWS Daily Summary

Daily Weather History Graph

Daily Weather History Graph

Search for Another Location

Airport or City:

Trip Planner

Search our weather history database for the weather conditions in past years. The results will help you decide how hot, cold, wet, or windy it might be!

Date:

Astronomy

Mar. 24, 2013 Rise Set
Actual Time 6:45 AM MDT 7:08 PM MDT
Civil Twilight 6:15 AM MDT 7:38 PM MDT
Nautical Twilight 5:40 AM MDT 8:14 PM MDT
Astronomical Twilight 5:03 AM MDT 8:50 PM MDT
Moon 4:33 PM MDT (3/24) 5:04 AM MDT (3/24)
Length of Visible Light 13h 23m
Length of Day
12h 23m
Waxing Gibbous, 92% of the Moon is Illuminated
Mar 24
Waxing Gibbous
Mar 27
Full
Apr 2
Last Quarter
Apr 10
New
Apr 18
First Quarter

Hourly Weather History & Observations

Time (MDT) Temp. Windchill Dew Point Humidity Pressure Visibility Wind Dir Wind Speed Gust Speed Precip Events Conditions
12:53 AM 6.1 °F -5.6 °F 1.9 °F 83% 30.32 in 10.0 mi WNW 6.9 mph - N/A   Clear
1:53 AM 5.0 °F -6.9 °F 1.9 °F 87% 30.32 in 10.0 mi WNW 6.9 mph - N/A   Clear
2:53 AM 7.0 °F -7.5 °F 1.9 °F 80% 30.30 in 10.0 mi WNW 10.4 mph - N/A   Clear
3:53 AM 7.0 °F -7.5 °F 3.0 °F 84% 30.29 in 9.0 mi WNW 10.4 mph - N/A   Overcast
4:14 AM 6.8 °F -8.6 °F 3.2 °F 85% 30.14 in 8.0 mi WNW 11.5 mph - N/A   Overcast
4:42 AM 6.8 °F -8.6 °F 1.4 °F 79% 30.14 in 9.0 mi WNW 11.5 mph - N/A   Overcast
4:53 AM 7.0 °F -9.1 °F 3.0 °F 84% 30.30 in 8.0 mi WNW 12.7 mph - N/A   Overcast
5:42 AM 6.8 °F -8.6 °F 1.4 °F 79% 30.15 in 4.0 mi WNW 11.5 mph - N/A   Overcast
5:53 AM 6.1 °F -8.7 °F 1.9 °F 83% 30.30 in 7.0 mi WNW 10.4 mph - N/A   Overcast
6:13 AM 6.8 °F -8.6 °F 1.4 °F 79% 30.15 in 6.0 mi WNW 11.5 mph - N/A   Haze
6:27 AM 8.6 °F -7.7 °F 3.2 °F 79% 30.15 in 1.8 mi NW 13.8 mph - 0.00 in Snow Light Snow
6:50 AM 8.6 °F -7.7 °F 3.2 °F 79% 30.15 in 2.0 mi NW 13.8 mph - 0.00 in Snow Light Snow
6:53 AM 9.0 °F -7.9 °F 3.9 °F 80% 30.31 in 1.8 mi NW 15.0 mph - 0.00 in Snow Light Snow
7:16 AM 8.6 °F -7.7 °F 3.2 °F 79% 30.15 in 3.0 mi WNW 13.8 mph - 0.00 in Snow Light Snow
7:53 AM 10.0 °F -5.2 °F 6.1 °F 84% 30.31 in 4.0 mi NW 12.7 mph - 0.00 in Snow Light Snow
8:53 AM 12.9 °F -3.4 °F 8.1 °F 81% 30.31 in 8.0 mi NW 16.1 mph 21.9 mph 0.00 in   Overcast
9:06 AM 14.0 °F -2.5 °F 8.6 °F 79% 30.16 in 2.5 mi NNW 17.3 mph - 0.00 in Snow Light Snow
9:18 AM 14.0 °F -2.0 °F 8.6 °F 79% 30.16 in 1.8 mi NNW 16.1 mph 25.3 mph 0.00 in Snow Light Snow
9:25 AM 15.8 °F -0.2 °F 8.6 °F 73% 30.16 in 2.5 mi NNW 17.3 mph 24.2 mph 0.00 in Snow Light Snow
9:45 AM 15.8 °F -0.6 °F 8.6 °F 73% 30.17 in 1.5 mi NW 18.4 mph 24.2 mph 0.00 in Snow Light Snow
9:53 AM 15.1 °F -1.1 °F 9.0 °F 77% 30.33 in 1.8 mi NW 17.3 mph - 0.00 in Snow Light Snow
10:45 AM 17.6 °F 2.7 °F 10.4 °F 73% 30.18 in 2.0 mi NNW 16.1 mph - 0.00 in Snow Light Snow
10:53 AM 17.1 °F 2.5 °F 10.0 °F 74% 30.34 in 2.5 mi NNW 15.0 mph - 0.00 in Snow Light Snow
11:11 AM 19.4 °F 4.5 °F 12.2 °F 74% 30.18 in 1.2 mi NNW 17.3 mph - 0.00 in Snow Light Snow
11:30 AM 19.4 °F 4.5 °F 12.2 °F 74% 30.18 in 3.0 mi NNW 17.3 mph - 0.00 in Snow Light Snow
11:42 AM 21.2 °F 6.8 °F 12.2 °F 68% 30.18 in 2.0 mi NNW 17.3 mph 24.2 mph 0.00 in Snow Light Snow
11:53 AM 21.0 °F 7.6 °F 12.9 °F 71% 30.34 in 3.0 mi North 15.0 mph 24.2 mph 0.00 in Snow Light Snow
12:02 PM 21.2 °F 8.3 °F 12.2 °F 68% 30.18 in 2.5 mi NNW 13.8 mph - 0.00 in Snow Light Snow
12:16 PM 21.2 °F 8.3 °F 12.2 °F 68% 30.18 in 1.5 mi NNW 13.8 mph - 0.00 in Snow Light Snow
12:35 PM 21.2 °F 7.3 °F 12.2 °F 68% 30.19 in 2.5 mi NNW 16.1 mph 20.7 mph 0.00 in Snow Light Snow
12:53 PM 21.9 °F 7.8 °F 12.9 °F 68% 30.34 in 2.5 mi NNW 17.3 mph - 0.00 in Snow Light Snow
1:15 PM 23.0 °F 10.1 °F 12.2 °F 63% 30.19 in 3.0 mi North 15.0 mph 23.0 mph 0.00 in Snow Light Snow
1:33 PM 21.2 °F 7.3 °F 12.2 °F 68% 30.19 in 1.8 mi NNW 16.1 mph - 0.00 in Snow Light Snow
1:48 PM 21.2 °F 6.0 °F 14.0 °F 74% 30.19 in 2.0 mi NNW 19.6 mph - 0.00 in Snow Light Snow
1:53 PM 23.0 °F 10.1 °F 14.0 °F 68% 30.34 in 3.0 mi NNW 15.0 mph 21.9 mph 0.00 in Snow Light Snow
2:08 PM 23.0 °F 8.3 °F 12.2 °F 63% 30.19 in 9.0 mi NNW 19.6 mph 25.3 mph 0.00 in   Overcast
2:23 PM 21.2 °F 7.8 °F 12.2 °F 68% 30.19 in 2.5 mi North 15.0 mph 23.0 mph 0.00 in Snow Light Snow
2:38 PM 21.2 °F 7.3 °F 14.0 °F 74% 30.20 in 1.2 mi North 16.1 mph - 0.00 in Snow Light Snow
2:53 PM 21.0 °F 8.6 °F 15.1 °F 78% 30.35 in 1.2 mi NNW 12.7 mph - 0.00 in Snow Light Snow
3:21 PM 21.2 °F 8.3 °F 15.8 °F 80% 30.20 in 0.8 mi North 13.8 mph - 0.00 in Snow Light Snow
3:31 PM 21.2 °F 8.3 °F 14.0 °F 74% 30.20 in 1.2 mi NNW 13.8 mph - 0.00 in Snow Light Snow
3:39 PM 21.2 °F 6.0 °F 12.2 °F 68% 30.20 in 1.8 mi NNW 19.6 mph 23.0 mph 0.00 in Snow Light Snow
3:49 PM 21.2 °F 6.4 °F 14.0 °F 74% 30.20 in 2.0 mi NW 18.4 mph 25.3 mph 0.00 in Snow Light Snow
3:53 PM 23.0 °F 8.3 °F 12.9 °F 65% 30.35 in 3.0 mi NW 19.6 mph - 0.00 in Snow Light Snow
4:17 PM 21.2 °F 6.8 °F 12.2 °F 68% 30.21 in 4.0 mi NW 17.3 mph - 0.00 in Snow Light Snow
4:19 PM 21.2 °F 7.3 °F 14.0 °F 74% 30.21 in 2.5 mi NNW 16.1 mph - 0.00 in Snow Light Snow
4:24 PM 21.2 °F 8.9 °F 14.0 °F 74% 30.21 in 0.8 mi NNW 12.7 mph - 0.00 in Snow Light Snow
4:37 PM 19.4 °F 4.5 °F 14.0 °F 80% 30.21 in 3.0 mi NNW 17.3 mph - 0.00 in Snow Light Snow
4:48 PM 21.2 °F 7.3 °F 12.2 °F 68% 30.21 in 7.0 mi NW 16.1 mph - 0.00 in Snow Light Snow
4:53 PM 21.9 °F 7.3 °F 12.9 °F 68% 30.36 in 8.0 mi NNW 18.4 mph 24.2 mph 0.00 in Snow Light Snow
5:53 PM 21.0 °F 5.7 °F 12.0 °F 68% 30.38 in 10.0 mi NNW 19.6 mph 24.2 mph 0.00 in   Overcast
6:05 PM 19.4 °F 5.0 °F 12.2 °F 74% 30.23 in 2.0 mi NNW 16.1 mph 25.3 mph 0.00 in Snow Light Snow
6:12 PM 19.4 °F 4.5 °F 14.0 °F 80% 30.23 in 1.2 mi NNW 17.3 mph - 0.00 in Snow Light Snow
6:18 PM 19.4 °F 4.5 °F 12.2 °F 74% 30.23 in 3.0 mi NNW 17.3 mph - 0.00 in Snow Light Snow
6:34 PM 19.4 °F 5.5 °F 12.2 °F 74% 30.23 in 9.0 mi NNW 15.0 mph 24.2 mph 0.00 in   Overcast
6:53 PM 18.0 °F 4.2 °F 10.0 °F 71% 30.39 in 10.0 mi NNW 13.8 mph - 0.00 in   Overcast
7:02 PM 17.6 °F 4.3 °F 10.4 °F 73% 30.24 in 10.0 mi NNW 12.7 mph - N/A   Overcast
7:18 PM 17.6 °F 3.7 °F 12.2 °F 79% 30.25 in 1.8 mi North 13.8 mph - 0.00 in Snow Light Snow
7:25 PM 17.6 °F 4.3 °F 12.2 °F 79% 30.25 in 3.0 mi NNW 12.7 mph 20.7 mph 0.00 in Snow Light Snow
7:37 PM 17.6 °F 3.7 °F 8.6 °F 68% 30.25 in 9.0 mi NNW 13.8 mph - 0.00 in   Mostly Cloudy
7:53 PM 15.1 °F 1.1 °F 8.1 °F 74% 30.41 in 10.0 mi NNW 12.7 mph - 0.00 in   Mostly Cloudy
8:53 PM 9.0 °F -0.9 °F 5.0 °F 84% 30.43 in 10.0 mi NW 5.8 mph - N/A   Clear
9:53 PM 8.1 °F -0.5 °F 5.0 °F 87% 30.44 in 10.0 mi NW 4.6 mph - N/A   Mostly Cloudy
10:53 PM 15.1 °F 2.5 °F 10.0 °F 80% 30.42 in 3.0 mi NNW 10.4 mph - 0.00 in Snow Light Snow
11:53 PM 14.0 °F 2.0 °F 10.0 °F 84% 30.42 in 4.0 mi NNW 9.2 mph - 0.00 in Snow Light Snow